GFSNIL_prec_precacc12_033.txt.gz
Total_Precipitation_Accumulation
0.01 0.02 0.04 0.03 0.03 0.05 0.05 0.03 0.02 0.02 0.01 0.01 0.00 0.00 0.00 0.00 0.00 0.00 0.00 0.00 0.00 0.00
0.01 0.02 0.03 0.03 0.03 0.03 0.02 0.02 0.02 0.02 0.01 0.01 0.00 0.00 0.00 0.00 0.00 0.00 0.00 0.00 0.00 0.00
0.03 0.02 0.01 0.02 0.02 0.02 0.01 0.00 0.01 0.02 0.01 0.01 0.00 0.00 0.00 0.00 0.00 0.00 0.00 0.00 0.00 0.00
0.01 0.02 0.01 0.01 0.01 0.01 0.01 0.01 0.01 0.01 0.01 0.00 0.00 0.00 0.00 0.00 0.00 0.00 0.00 0.00 0.00 0.00
0.01 0.01 0.01 0.01 0.01 0.01 0.02 0.02 0.01 0.02 0.00 0.00 0.00 0.00 0.00 0.00 0.00 0.00 0.00 0.00 0.00 0.00
0.01 0.01 0.00 0.01 0.02 0.02 0.02 0.02 0.01 0.00 0.00 0.00 0.00 0.00 0.00 0.00 0.00 0.00 0.00 0.00 0.00 0.00
0.01 0.01 0.02 0.02 0.03 0.02 0.01 0.01 0.01 0.00 0.00 0.00 0.00 0.00 0.00 0.00 0.00 0.00 0.00 0.00 0.00 0.00
0.00 0.01 0.01 0.02 0.02 0.02 0.01 0.01 0.00 0.01 0.01 0.00 0.00 0.00 0.00 0.00 0.00 0.00 0.00 0.00 0.00 0.00
0.00 0.01 0.02 0.01 0.02 0.06 0.10 0.07 0.05 0.04 0.02 0.00 0.01 0.02 0.01 0.00 0.00 0.00 0.00 0.00 0.00 0.00
0.02 0.02 0.04 0.09 0.09 0.05 0.07 0.09 0.10 0.09 0.08 0.07 0.03 0.00 0.00 0.00 0.00 0.00 0.00 0.00 0.00 0.00
0.14 0.21 0.16 0.14 0.18 0.28 0.27 0.17 0.07 0.04 0.01 0.00 0.00 0.00 0.00 0.00 0.00 0.00 0.00 0.00 0.00 0.00
0.47 0.43 0.43 0.31 0.23 0.18 0.10 0.04 0.01 0.00 0.00 0.00 0.00 0.00 0.00 0.00 0.00 0.00 0.00 0.00 0.00 0.00
0.47 0.38 0.29 0.20 0.10 0.01 0.00 0.00 0.00 0.00 0.00 0.00 0.00 0.00 0.00 0.00 0.00 0.00 0.00 0.00 0.00 0.00
0.19 0.06 0.00 0.00 0.00 0.00 0.00 0.00 0.00 0.00 0.00 0.00 0.00 0.00 0.00 0.00 0.00 0.00 0.00 0.00 0.00 0.00

GFSNIL_prec_precacc12_036.txt.gz
Total_Precipitation_Accumulation
0.01 0.02 0.04 0.05 0.05 0.06 0.07 0.06 0.04 0.04 0.04 0.02 0.01 0.01 0.00 0.00 0.00 0.00 0.00 0.00 0.00 0.00
0.01 0.02 0.04 0.04 0.05 0.05 0.05 0.05 0.05 0.05 0.03 0.02 0.01 0.01 0.00 0.00 0.00 0.00 0.00 0.00 0.00 0.00
0.03 0.04 0.03 0.03 0.03 0.04 0.04 0.04 0.04 0.04 0.02 0.02 0.01 0.00 0.00 0.00 0.00 0.00 0.00 0.00 0.00 0.00
0.01 0.04 0.03 0.03 0.03 0.03 0.04 0.02 0.02 0.01 0.02 0.01 0.01 0.01 0.02 0.03 0.01 0.00 0.00 0.00 0.00 0.00
0.04 0.04 0.03 0.03 0.03 0.03 0.03 0.02 0.02 0.02 0.01 0.01 0.02 0.05 0.08 0.07 0.01 0.00 0.00 0.00 0.00 0.00
0.03 0.03 0.03 0.02 0.02 0.02 0.02 0.02 0.01 0.01 0.02 0.04 0.07 0.08 0.04 0.02 0.00 0.00 0.00 0.00 0.00 0.00
0.02 0.02 0.02 0.02 0.03 0.02 0.01 0.01 0.01 0.02 0.02 0.02 0.01 0.01 0.00 0.00 0.00 0.00 0.00 0.01 0.01 0.00
0.02 0.03 0.02 0.02 0.02 0.02 0.02 0.01 0.01 0.02 0.03 0.05 0.04 0.03 0.01 0.03 0.05 0.06 0.05 0.02 0.00 0.00
0.05 0.02 0.03 0.02 0.02 0.06 0.11 0.09 0.10 0.11 0.09 0.07 0.08 0.11 0.13 0.11 0.06 0.02 0.00 0.00 0.00 0.00
0.12 0.03 0.05 0.11 0.11 0.06 0.09 0.16 0.22 0.25 0.30 0.29 0.24 0.16 0.06 0.01 0.00 0.00 0.00 0.00 0.00 0.00
0.15 0.22 0.21 0.26 0.43 0.48 0.45 0.39 0.35 0.36 0.28 0.15 0.05 0.01 0.00 0.00 0.00 0.00 0.00 0.00 0.00 0.00
0.49 0.52 0.64 0.58 0.46 0.44 0.31 0.23 0.15 0.08 0.03 0.02 0.01 0.00 0.00 0.00 0.00 0.00 0.00 0.00 0.00 0.00
0.65 0.62 0.55 0.48 0.39 0.25 0.10 0.04 0.01 0.00 0.00 0.00 0.00 0.00 0.00 0.00 0.00 0.00 0.00 0.00 0.00 0.00
0.54 0.36 0.19 0.08 0.02 0.01 0.00 0.00 0.00 0.00 0.00 0.00 0.00 0.00 0.00 0.00 0.00 0.00 0.00 0.00 0.00 0.00

GFSNIL_prec_precacc12_042.txt.gz
Total_Precipitation_Accumulation
0.00 0.01 0.03 0.05 0.04 0.04 0.06 0.06 0.07 0.09 0.10 0.08 0.07 0.06 0.06 0.06 0.04 0.02 0.02 0.01 0.00 0.00
0.00 0.02 0.03 0.02 0.03 0.03 0.04 0.06 0.07 0.10 0.12 0.12 0.09 0.06 0.05 0.04 0.02 0.01 0.01 0.01 0.01 0.01
0.03 0.03 0.02 0.02 0.02 0.03 0.04 0.06 0.07 0.08 0.08 0.08 0.06 0.04 0.03 0.02 0.01 0.01 0.01 0.01 0.01 0.01
0.01 0.03 0.02 0.02 0.03 0.03 0.04 0.03 0.04 0.03 0.04 0.04 0.04 0.03 0.03 0.03 0.04 0.04 0.04 0.03 0.03 0.04
0.03 0.03 0.03 0.03 0.03 0.04 0.05 0.05 0.05 0.04 0.03 0.02 0.03 0.05 0.09 0.13 0.13 0.11 0.10 0.10 0.11 0.11
0.02 0.03 0.03 0.04 0.04 0.04 0.04 0.03 0.03 0.02 0.03 0.04 0.08 0.09 0.07 0.05 0.03 0.03 0.04 0.04 0.04 0.05
0.02 0.02 0.03 0.03 0.04 0.04 0.03 0.03 0.02 0.02 0.03 0.02 0.02 0.02 0.03 0.04 0.04 0.05 0.06 0.07 0.08 0.12
0.08 0.07 0.04 0.01 0.02 0.03 0.03 0.03 0.02 0.02 0.04 0.05 0.06 0.08 0.10 0.14 0.20 0.27 0.31 0.33 0.31 0.25
0.09 0.05 0.07 0.04 0.02 0.04 0.11 0.11 0.12 0.12 0.10 0.09 0.12 0.26 0.30 0.31 0.31 0.29 0.25 0.20 0.12 0.07
0.17 0.05 0.08 0.17 0.13 0.10 0.11 0.20 0.26 0.28 0.37 0.46 0.49 0.51 0.42 0.31 0.22 0.17 0.13 0.09 0.08 0.05
0.18 0.22 0.18 0.27 0.62 0.67 0.61 0.56 0.52 0.55 0.50 0.43 0.39 0.33 0.22 0.13 0.08 0.06 0.05 0.03 0.02 0.01
0.40 0.64 0.80 0.68 0.71 0.94 0.76 0.67 0.54 0.39 0.32 0.24 0.17 0.11 0.06 0.03 0.02 0.01 0.00 0.00 0.00 0.00
0.65 0.71 0.74 0.75 0.63 0.47 0.31 0.31 0.29 0.19 0.10 0.07 0.05 0.04 0.01 0.00 0.00 0.00 0.00 0.00 0.00 0.00
0.70 0.61 0.40 0.33 0.26 0.15 0.10 0.08 0.06 0.04 0.02 0.01 0.00 0.00 0.00 0.00 0.00 0.00 0.00 0.00 0.00 0.00

GFSNIL_prec_precacc12_045.txt.gz
Total_Precipitation_Accumulation
0.00 0.00 0.01 0.04 0.02 0.03 0.05 0.06 0.06 0.12 0.14 0.13 0.13 0.11 0.17 0.14 0.08 0.05 0.03 0.01 0.01 0.00
0.00 0.00 0.01 0.01 0.01 0.03 0.03 0.05 0.06 0.09 0.13 0.14 0.14 0.14 0.12 0.12 0.09 0.05 0.02 0.02 0.02 0.02
0.01 0.02 0.02 0.01 0.02 0.02 0.04 0.05 0.06 0.06 0.06 0.07 0.07 0.07 0.07 0.07 0.06 0.06 0.03 0.02 0.01 0.01
0.00 0.02 0.02 0.02 0.02 0.03 0.03 0.03 0.02 0.02 0.03 0.04 0.04 0.04 0.04 0.05 0.05 0.05 0.04 0.03 0.03 0.04
0.02 0.03 0.03 0.03 0.03 0.04 0.03 0.03 0.03 0.03 0.02 0.02 0.03 0.05 0.09 0.13 0.13 0.11 0.11 0.11 0.13 0.14
0.02 0.03 0.03 0.04 0.03 0.03 0.03 0.02 0.02 0.02 0.02 0.04 0.08 0.09 0.07 0.05 0.03 0.04 0.06 0.07 0.08 0.09
0.02 0.02 0.03 0.03 0.04 0.03 0.02 0.02 0.02 0.02 0.03 0.02 0.02 0.03 0.03 0.05 0.06 0.09 0.10 0.14 0.17 0.21
0.07 0.07 0.05 0.03 0.04 0.04 0.02 0.02 0.02 0.02 0.03 0.06 0.06 0.09 0.11 0.14 0.22 0.31 0.38 0.43 0.42 0.36
0.09 0.06 0.08 0.05 0.04 0.04 0.03 0.05 0.09 0.09 0.08 0.09 0.11 0.27 0.31 0.33 0.34 0.32 0.29 0.25 0.18 0.13
0.17 0.05 0.07 0.15 0.09 0.08 0.06 0.12 0.20 0.30 0.35 0.42 0.50 0.56 0.46 0.35 0.27 0.24 0.20 0.16 0.14 0.10
0.19 0.15 0.11 0.23 0.48 0.40 0.36 0.42 0.47 0.57 0.66 0.48 0.46 0.42 0.30 0.19 0.12 0.10 0.09 0.08 0.05 0.03
0.30 0.47 0.56 0.51 0.52 0.81 0.70 0.71 0.64 0.50 0.41 0.35 0.28 0.16 0.09 0.07 0.08 0.07 0.05 0.03 0.01 0.00
0.27 0.43 0.56 0.63 0.62 0.60 0.45 0.44 0.38 0.32 0.24 0.16 0.10 0.07 0.04 0.03 0.03 0.01 0.00 0.00 0.00 0.00
0.55 0.62 0.50 0.43 0.39 0.27 0.20 0.17 0.12 0.07 0.04 0.02 0.01 0.00 0.00 0.00 0.00 0.00 0.00 0.00 0.00 0.00

GFSNIL_prec_precacc12_048.txt.gz
Total_Precipitation_Accumulation
0.00 0.00 0.00 0.03 0.01 0.02 0.03 0.03 0.04 0.10 0.13 0.14 0.15 0.13 0.20 0.20 0.15 0.12 0.08 0.05 0.03 0.01
0.00 0.00 0.00 0.00 0.00 0.00 0.01 0.02 0.03 0.06 0.11 0.15 0.15 0.15 0.14 0.16 0.15 0.13 0.10 0.07 0.04 0.03
0.00 0.00 0.00 0.00 0.00 0.00 0.01 0.02 0.03 0.05 0.06 0.06 0.07 0.08 0.08 0.08 0.09 0.11 0.09 0.07 0.04 0.03
0.00 0.00 0.00 0.00 0.00 0.00 0.01 0.02 0.02 0.02 0.02 0.03 0.03 0.03 0.02 0.02 0.04 0.07 0.06 0.06 0.06 0.07
0.00 0.00 0.00 0.01 0.02 0.02 0.03 0.03 0.03 0.02 0.01 0.01 0.00 0.00 0.01 0.06 0.12 0.12 0.11 0.12 0.14 0.16
0.00 0.00 0.01 0.03 0.03 0.03 0.03 0.02 0.02 0.01 0.01 0.01 0.01 0.01 0.03 0.04 0.03 0.04 0.06 0.08 0.10 0.14
0.01 0.01 0.02 0.03 0.04 0.03 0.02 0.02 0.02 0.01 0.01 0.01 0.01 0.02 0.03 0.05 0.07 0.09 0.11 0.14 0.19 0.27
0.06 0.06 0.04 0.03 0.04 0.05 0.04 0.03 0.04 0.02 0.01 0.01 0.02 0.06 0.10 0.12 0.17 0.26 0.35 0.44 0.46 0.43
0.04 0.05 0.07 0.05 0.05 0.05 0.06 0.08 0.08 0.04 0.04 0.05 0.07 0.20 0.20 0.23 0.29 0.33 0.33 0.31 0.26 0.21
0.07 0.05 0.06 0.13 0.08 0.08 0.09 0.13 0.12 0.17 0.18 0.24 0.34 0.47 0.44 0.38 0.30 0.27 0.24 0.21 0.18 0.14
0.18 0.14 0.07 0.17 0.30 0.29 0.26 0.42 0.24 0.27 0.51 0.61 0.52 0.48 0.38 0.24 0.15 0.13 0.11 0.09 0.06 0.03
0.28 0.40 0.39 0.36 0.40 0.68 0.55 0.56 0.54 0.47 0.42 0.40 0.35 0.23 0.14 0.10 0.09 0.07 0.05 0.03 0.01 0.00
0.09 0.21 0.34 0.41 0.45 0.49 0.49 0.53 0.45 0.36 0.32 0.23 0.13 0.08 0.05 0.04 0.03 0.02 0.01 0.00 0.00 0.00
0.20 0.33 0.34 0.38 0.42 0.31 0.22 0.21 0.14 0.08 0.05 0.02 0.01 0.00 0.00 0.00 0.00 0.00 0.00 0.00 0.00 0.00

GFSNIL_prec_precacc12_051.txt.gz
Total_Precipitation_Accumulation
0.00 0.00 0.00 0.02 0.01 0.01 0.00 0.00 0.02 0.08 0.10 0.12 0.13 0.12 0.20 0.19 0.14 0.14 0.11 0.09 0.06 0.04
0.00 0.00 0.00 0.00 0.00 0.00 0.00 0.00 0.01 0.04 0.08 0.12 0.14 0.16 0.17 0.18 0.17 0.15 0.13 0.12 0.10 0.08
0.00 0.00 0.00 0.00 0.00 0.00 0.00 0.00 0.01 0.02 0.03 0.05 0.07 0.10 0.13 0.13 0.15 0.16 0.13 0.11 0.09 0.07
0.00 0.00 0.00 0.00 0.00 0.00 0.00 0.00 0.00 0.00 0.01 0.02 0.03 0.03 0.04 0.04 0.05 0.07 0.08 0.08 0.08 0.10
0.00 0.00 0.00 0.00 0.00 0.00 0.00 0.00 0.01 0.01 0.01 0.01 0.00 0.00 0.01 0.01 0.02 0.03 0.06 0.08 0.11 0.16
0.00 0.00 0.00 0.00 0.00 0.00 0.00 0.00 0.01 0.02 0.02 0.02 0.02 0.01 0.01 0.01 0.01 0.03 0.05 0.07 0.11 0.15
0.00 0.01 0.01 0.01 0.01 0.01 0.01 0.01 0.02 0.01 0.01 0.01 0.02 0.02 0.02 0.02 0.04 0.07 0.10 0.14 0.19 0.25
0.01 0.03 0.03 0.03 0.03 0.03 0.04 0.03 0.04 0.03 0.02 0.01 0.01 0.02 0.04 0.04 0.07 0.11 0.18 0.29 0.37 0.40
0.00 0.01 0.02 0.03 0.04 0.05 0.06 0.08 0.10 0.10 0.06 0.07 0.11 0.15 0.08 0.07 0.09 0.16 0.21 0.25 0.25 0.24
0.01 0.01 0.01 0.01 0.02 0.05 0.07 0.20 0.30 0.29 0.23 0.23 0.29 0.42 0.35 0.26 0.24 0.27 0.24 0.23 0.21 0.16
0.03 0.03 0.03 0.10 0.13 0.15 0.19 0.40 0.34 0.22 0.40 0.53 0.53 0.49 0.40 0.33 0.23 0.18 0.14 0.10 0.06 0.03
0.12 0.24 0.29 0.30 0.31 0.46 0.28 0.30 0.33 0.29 0.32 0.37 0.39 0.27 0.16 0.11 0.10 0.07 0.05 0.03 0.01 0.00
0.06 0.14 0.25 0.24 0.30 0.38 0.38 0.42 0.39 0.34 0.32 0.24 0.14 0.08 0.05 0.04 0.03 0.02 0.01 0.00 0.00 0.00
0.09 0.16 0.24 0.25 0.33 0.28 0.21 0.20 0.14 0.08 0.04 0.02 0.01 0.00 0.00 0.00 0.00 0.00 0.00 0.00 0.00 0.00